CDT,Max TemperatureF,Mean TemperatureF,Min TemperatureF,Max Dew PointF,MeanDew PointF,Min DewpointF,Max Humidity, Mean Humidity, Min Humidity, Max Sea Level PressureIn, Mean Sea Level PressureIn, Min Sea Level PressureIn, Max VisibilityMiles, Mean VisibilityMiles, Min VisibilityMiles, Max Wind SpeedMPH, Mean Wind SpeedMPH, Max Gust SpeedMPH,PrecipitationIn, CloudCover, Events, WindDirDegrees
2011-10-1,58,45,31,38,33,30,96,66,36,30.41,30.34,30.28,10,10,10,10,2,12,0.00,0,,292
2011-10-2,69,50,31,45,36,28,100,67,33,30.31,30.25,30.17,10,8,0,12,3,17,0.00,2,Fog,275
2011-10-3,74,58,41,49,44,40,96,66,35,30.29,30.24,30.20,10,10,10,8,3,12,0.00,0,,82
2011-10-4,75,60,44,50,47,42,93,66,38,30.29,30.23,30.18,10,10,9,9,3,13,0.00,0,,139
2011-10-5,80,62,43,49,46,42,93,63,32,30.22,30.19,30.14,10,10,10,12,5,15,0.00,0,,133
2011-10-6,78,62,46,50,48,45,93,63,32,30.25,30.20,30.17,10,10,6,16,6,22,0.00,0,,130
2011-10-7,80,66,52,52,49,44,83,57,30,30.21,30.14,30.06,10,10,9,25,12,32,0.00,0,,151
2011-10-8,80,71,61,53,51,48,67,51,35,30.21,30.16,30.10,10,10,10,21,10,26,0.00,0,,185
2011-10-9,79,66,52,52,50,47,89,62,35,30.32,30.26,30.22,10,10,9,10,4,14,0.00,0,,155
2011-10-10,76,62,47,52,48,45,93,65,36,30.24,30.12,30.00,10,9,6,17,6,22,0.00,0,,130
2011-10-11,65,60,54,61,55,48,100,82,64,30.00,29.95,29.90,10,5,0,7,3,9,0.13,6,Fog-Rain,115
2011-10-12,66,61,55,58,56,54,100,87,73,29.91,29.80,29.66,10,4,0,12,4,15,0.10,7,Fog-Rain,112
2011-10-13,56,53,49,54,52,44,100,90,80,29.65,29.53,29.47,10,5,2,18,9,26,1.17,8,Rain,55
2011-10-14,51,48,44,43,37,31,83,67,50,29.58,29.52,29.47,10,10,10,28,18,39,0.00,7,,293
2011-10-15,56,50,43,35,31,28,61,50,38,29.77,29.70,29.59,10,10,10,32,20,43,0.00,2,Rain,286
2011-10-16,56,50,43,36,30,23,70,51,32,29.77,29.72,29.67,10,10,10,33,18,44,0.00,2,,274
2011-10-17,57,49,40,30,28,25,62,46,30,29.78,29.71,29.69,10,10,10,29,17,37,0.00,1,,277
2011-10-18,51,44,36,34,32,31,82,66,50,29.99,29.89,29.78,10,10,10,14,8,22,0.00,6,,345
2011-10-19,50,43,36,36,32,29,89,68,46,30.02,29.96,29.85,10,10,10,17,10,25,T,5,,3
2011-10-20,46,40,33,32,31,29,82,70,58,29.91,29.81,29.72,10,10,10,23,12,32,0.00,7,,344
2011-10-21,54,42,29,32,29,27,92,64,35,30.06,30.02,29.96,10,10,10,12,4,15,0.00,0,,298
2011-10-22,58,44,30,35,32,28,96,68,40,30.07,30.04,30.00,10,10,8,12,3,16,0.00,0,,346
2011-10-23,54,42,29,46,38,28,93,80,66,30.01,29.87,29.76,10,9,2,16,5,23,0.19,5,Rain,229
2011-10-24,58,48,38,38,36,31,92,65,38,30.08,29.98,29.88,10,10,10,21,7,26,0.00,1,,285
2011-10-25,48,43,38,39,36,31,93,75,56,30.08,29.97,29.88,10,8,2,18,9,24,0.08,8,Rain,63
2011-10-26,49,42,34,34,32,28,89,68,46,30.07,30.02,29.94,10,10,10,12,5,14,0.00,6,,351
2011-10-27,47,39,30,34,31,28,96,75,53,30.14,30.07,30.01,10,9,2,16,2,18,0.03,4,Rain,314
2011-10-28,50,38,26,34,28,24,100,71,42,30.14,30.08,30.01,10,4,0,16,4,22,0.01,6,Fog-Rain,132
2011-10-29,49,39,28,33,28,26,92,67,42,30.09,30.02,29.95,10,6,0,15,5,20,0.00,2,Fog,311
2011-10-30,45,37,29,38,32,23,92,73,53,30.08,29.92,29.82,10,7,3,20,6,24,0.09,7,Rain,118
2011-10-31,43,40,37,38,36,34,100,88,76,30.07,29.96,29.86,10,6,2,9,5,10,T,8,Rain,263